Starlink 4430

operational
NORAD ID: 53485 Int'l Des: 2022-099 Owner: SPXS Country: US Constellation: starlink
LEOCIRCULARRETROGRADESSO

关于 Starlink 4430

正在加载描述...

实时位置

正在加载3D地球...

即将过境

高度历史

Altitude vs Time

uPlot chart will show altitude changes over time

两行轨道根数

1 53485U 22099W 25354.91309047 -.00000171 00000-0 -87652-5 0 9993
2 53485 97.6006 113.0851 0000906 228.8275 131.2872 15.01263236184166
Epoch: Dec 20, 2025 • Age: 10 hours

当前状态

高度 572.2 km
速度 7.58 km/s
星下点 54.54°N, 93.09°E
发射日期 Aug 12, 2022
运行时间 3.3 years
类型 internet

技术详情

分类 Payload
质量 300.00 kg
干质量 275.00 kg
总质量 300.00 kg
长度 0.20 m
直径 2.80 m
跨度 9.00 m
形状 Box + pan
制造商 SPXS
平台类型 Starlink
阶段状态 In Orbit
所有者/国家 SPXS/US

大型星座

Loading constellations...